TimeMDT,TemperatureF,Dew PointF,Humidity,Sea Level PressureIn,VisibilityMPH,Wind Direction,Wind SpeedMPH,Gust SpeedMPH,PrecipitationIn,Events,Conditions,WindDirDegrees,DateUTC
12:35 AM,33.8,30.2,87,30.09,10.0,WNW,3.5,-,N/A,,Mostly Cloudy,300,2012-10-16 06:35:00
12:55 AM,32.0,28.4,87,30.08,10.0,WNW,3.5,-,N/A,,Scattered Clouds,300,2012-10-16 06:55:00
1:15 AM,32.0,28.4,87,30.08,10.0,WNW,5.8,-,N/A,,Scattered Clouds,290,2012-10-16 07:15:00
1:35 AM,32.0,28.4,87,30.08,10.0,WNW,5.8,-,N/A,,Scattered Clouds,300,2012-10-16 07:35:00
1:55 AM,32.0,30.2,93,30.08,10.0,NW,3.5,-,N/A,,Scattered Clouds,320,2012-10-16 07:55:00
2:15 AM,30.2,28.4,93,30.07,10.0,Calm,Calm,-,N/A,,Clear,0,2012-10-16 08:15:00
2:35 AM,32.0,30.2,93,30.08,10.0,NNW,4.6,-,N/A,,Scattered Clouds,330,2012-10-16 08:35:00
2:55 AM,32.0,30.2,93,30.07,10.0,WNW,6.9,-,N/A,,Scattered Clouds,300,2012-10-16 08:55:00
4:15 AM,32.0,30.2,93,30.04,10.0,WNW,4.6,-,N/A,,Scattered Clouds,290,2012-10-16 10:15:00
4:35 AM,32.0,30.2,93,30.03,10.0,WNW,3.5,-,N/A,,Overcast,300,2012-10-16 10:35:00
5:15 AM,32.0,32.0,100,30.03,10.0,East,3.5,-,N/A,,Overcast,100,2012-10-16 11:15:00
5:35 AM,33.8,32.0,93,30.01,10.0,East,3.5,-,N/A,,Overcast,100,2012-10-16 11:35:00
6:15 AM,33.8,32.0,93,30.00,10.0,Calm,Calm,-,N/A,,Overcast,0,2012-10-16 12:15:00
6:35 AM,35.6,32.0,87,30.00,10.0,Calm,Calm,-,N/A,,Overcast,0,2012-10-16 12:35:00
6:55 AM,35.6,32.0,87,29.99,10.0,Calm,Calm,-,N/A,,Overcast,0,2012-10-16 12:55:00
7:35 AM,35.6,32.0,87,29.97,10.0,Calm,Calm,-,N/A,,Light Drizzle,0,2012-10-16 13:35:00
7:55 AM,37.4,32.0,81,29.97,10.0,Calm,Calm,-,N/A,,Overcast,0,2012-10-16 13:55:00
8:15 AM,37.4,32.0,81,29.97,10.0,WNW,4.6,-,N/A,,Overcast,300,2012-10-16 14:15:00
8:35 AM,37.4,32.0,81,29.97,10.0,Calm,Calm,-,N/A,,Drizzle,0,2012-10-16 14:35:00
8:55 AM,37.4,35.6,93,29.97,10.0,WNW,4.6,-,N/A,Rain,Rain,290,2012-10-16 14:55:00
9:15 AM,37.4,37.4,100,29.97,7.0,Calm,Calm,-,N/A,Rain,Light Rain,0,2012-10-16 15:15:00
10:15 AM,41.0,39.2,93,29.93,10.0,East,3.5,-,N/A,,Overcast,100,2012-10-16 16:15:00
10:55 AM,42.8,42.8,100,29.89,10.0,East,5.8,-,N/A,,Overcast,100,2012-10-16 16:55:00
11:15 AM,42.8,42.8,100,29.88,10.0,SE,3.5,-,N/A,,Light Drizzle,130,2012-10-16 17:15:00
11:35 AM,42.8,42.8,100,29.88,10.0,ESE,4.6,-,N/A,,Light Drizzle,110,2012-10-16 17:35:00
11:55 AM,44.6,42.8,93,29.87,10.0,East,4.6,-,N/A,,Overcast,100,2012-10-16 17:55:00
12:15 PM,50.0,41.0,71,29.84,10.0,West,10.4,-,N/A,,Mostly Cloudy,260,2012-10-16 18:15:00
12:35 PM,51.8,41.0,67,29.83,10.0,WNW,10.4,-,N/A,,Mostly Cloudy,290,2012-10-16 18:35:00
12:55 PM,50.0,41.0,71,29.82,10.0,North,6.9,-,N/A,Rain,Light Rain,360,2012-10-16 18:55:00
1:15 PM,50.0,42.8,76,29.81,10.0,West,13.8,20.7,N/A,,Drizzle,280,2012-10-16 19:15:00
1:35 PM,48.2,42.8,82,29.80,10.0,West,12.7,-,N/A,Rain,Rain,260,2012-10-16 19:35:00
1:55 PM,46.4,42.8,87,29.79,7.0,WSW,11.5,17.3,N/A,Rain,Light Rain,250,2012-10-16 19:55:00
2:15 PM,44.6,42.8,93,29.78,5.0,WSW,16.1,28.8,N/A,Rain,Light Rain,250,2012-10-16 20:15:00
2:35 PM,44.6,44.6,100,29.77,7.0,SW,17.3,24.2,N/A,Rain,Light Rain,230,2012-10-16 20:35:00
2:55 PM,42.8,41.0,93,29.77,7.0,SW,16.1,26.5,N/A,Rain,Rain,230,2012-10-16 20:55:00
3:15 PM,42.8,41.0,93,29.77,5.0,SSW,13.8,18.4,N/A,Rain,Rain,210,2012-10-16 21:15:00
3:35 PM,42.8,41.0,93,29.79,5.0,SW,18.4,25.3,N/A,Rain,Light Rain,220,2012-10-16 21:35:00
3:55 PM,42.8,41.0,93,29.80,5.0,SW,18.4,27.6,N/A,Rain,Light Rain,230,2012-10-16 21:55:00
4:15 PM,44.6,42.8,93,29.79,10.0,SW,12.7,23.0,N/A,,Scattered Clouds,230,2012-10-16 22:15:00
4:35 PM,46.4,33.8,62,29.78,10.0,WSW,19.6,32.2,N/A,,Clear,250,2012-10-16 22:35:00
4:55 PM,46.4,32.0,57,29.78,10.0,West,25.3,35.7,N/A,,Clear,270,2012-10-16 22:55:00
5:15 PM,46.4,30.2,53,29.77,10.0,West,20.7,29.9,N/A,,Scattered Clouds,280,2012-10-16 23:15:00
5:35 PM,46.4,28.4,50,29.77,10.0,West,25.3,34.5,N/A,,Scattered Clouds,280,2012-10-16 23:35:00
5:55 PM,44.6,28.4,53,29.77,10.0,West,16.1,25.3,N/A,,Clear,280,2012-10-16 23:55:00
6:15 PM,44.6,30.2,57,29.77,10.0,West,8.1,-,N/A,,Clear,280,2012-10-17 00:15:00
6:35 PM,42.8,30.2,61,29.79,10.0,West,10.4,-,N/A,,Clear,280,2012-10-17 00:35:00
6:55 PM,41.0,30.2,65,29.79,10.0,Calm,Calm,-,N/A,,Clear,0,2012-10-17 00:55:00
7:15 PM,39.2,32.0,75,29.80,10.0,East,3.5,-,N/A,,Mostly Cloudy,90,2012-10-17 01:15:00
7:35 PM,41.0,30.2,65,29.81,10.0,Calm,Calm,-,N/A,,Overcast,0,2012-10-17 01:35:00
7:55 PM,39.2,30.2,70,29.83,10.0,West,4.6,-,N/A,,Mostly Cloudy,280,2012-10-17 01:55:00
8:15 PM,37.4,30.2,75,29.84,10.0,West,5.8,-,N/A,,Mostly Cloudy,260,2012-10-17 02:15:00
8:35 PM,37.4,30.2,75,29.85,10.0,West,4.6,-,N/A,,Scattered Clouds,260,2012-10-17 02:35:00
8:55 PM,37.4,28.4,70,29.85,10.0,West,8.1,-,N/A,,Scattered Clouds,260,2012-10-17 02:55:00
9:15 PM,35.6,28.4,75,29.86,10.0,West,10.4,-,N/A,,Clear,280,2012-10-17 03:15:00
9:35 PM,35.6,26.6,70,29.86,10.0,West,12.7,-,N/A,,Clear,280,2012-10-17 03:35:00
9:55 PM,35.6,26.6,70,29.87,10.0,West,16.1,-,N/A,,Clear,280,2012-10-17 03:55:00
10:15 PM,35.6,26.6,70,29.87,10.0,West,21.9,27.6,N/A,,Clear,280,2012-10-17 04:15:00
10:55 PM,35.6,24.8,65,29.87,10.0,West,20.7,28.8,N/A,,Clear,280,2012-10-17 04:55:00
11:15 PM,35.6,23.0,60,29.86,10.0,West,21.9,28.8,N/A,,Clear,280,2012-10-17 05:15:00
11:35 PM,33.8,21.2,60,29.87,10.0,West,20.7,29.9,N/A,,Clear,280,2012-10-17 05:35:00
11:55 PM,33.8,23.0,65,29.89,10.0,West,17.3,21.9,N/A,,Clear,280,2012-10-17 05:55:00